| time (UTC) | temp F | wind direction | speed MPH | gust MPH | rain 1hr in | rain 24hr in | rain mn in | humidity % | barometer mb |
| 20260504011256 | 68 | 20 | 1.0 | 4.0 | 0.00 | 0.07 | 0.01 | 75 | 1014.6 |
| 20260504010256 | 68 | 19 | 1.0 | 4.0 | 0.00 | 0.07 | 0.01 | 75 | 1014.6 |
| 20260504005255 | 68 | 20 | 2.0 | 5.0 | 0.00 | 0.07 | 0.01 | 75 | 1014.6 |
| 20260504004254 | 69 | 22 | 2.0 | 5.0 | 0.00 | 0.07 | 0.01 | 74 | 1015.0 |
| 20260504003253 | 69 | 56 | 1.0 | 4.0 | 0.00 | 0.07 | 0.01 | 73 | 1014.6 |
| 20260504002221 | 70 | 23 | 1.0 | 4.0 | 0.00 | 0.07 | 0.01 | 72 | 1014.6 |
| 20260504001149 | 70 | 36 | 1.0 | 5.0 | 0.00 | 0.07 | 0.01 | 72 | 1014.3 |
| 20260504000117 | 70 | 19 | 1.0 | 5.0 | 0.00 | 0.07 | 0.01 | 71 | 1014.3 |
| 20260503235116 | 71 | 12 | 1.0 | 5.0 | 0.00 | 0.07 | 0.01 | 70 | 1014.3 |
| 20260503234115 | 71 | 22 | 2.0 | 7.0 | 0.00 | 0.07 | 0.01 | 69 | 1014.3 |
| 20260503233114 | 71 | 75 | 2.0 | 8.0 | 0.00 | 0.07 | 0.01 | 68 | 1014.3 |
| 20260503231940 | 72 | 17 | 2.0 | 7.0 | 0.00 | 0.07 | 0.01 | 68 | 1014.3 |
| 20260503230908 | 72 | 69 | 2.0 | 7.0 | 0.00 | 0.07 | 0.01 | 68 | 1014.3 |
| 20260503225907 | 73 | 31 | 3.0 | 8.0 | 0.00 | 0.07 | 0.01 | 66 | 1014.3 |
| 20260503224906 | 73 | 23 | 3.0 | 8.0 | 0.00 | 0.07 | 0.01 | 66 | 1014.3 |
| 20260503223905 | 73 | 54 | 2.0 | 7.0 | 0.00 | 0.07 | 0.01 | 66 | 1014.3 |
| 20260503222904 | 73 | 24 | 3.0 | 7.0 | 0.00 | 0.07 | 0.01 | 65 | 1014.3 |
| 20260503221904 | 74 | 75 | 1.0 | 8.0 | 0.00 | 0.07 | 0.01 | 64 | 1014.3 |
| 20260503220903 | 74 | 47 | 1.0 | 7.0 | 0.00 | 0.07 | 0.01 | 63 | 1014.0 |
| 20260503215902 | 75 | 47 | 4.0 | 8.0 | 0.00 | 0.07 | 0.01 | 62 | 1014.0 |
| 20260503214901 | 75 | 60 | 2.0 | 7.0 | 0.00 | 0.07 | 0.01 | 60 | 1014.0 |
| 20260503213829 | 75 | 82 | 2.0 | 6.0 | 0.00 | 0.07 | 0.01 | 61 | 1013.6 |
| 20260503212828 | 76 | 20 | 3.0 | 6.0 | 0.00 | 0.07 | 0.01 | 58 | 1014.0 |
| 20260503211828 | 76 | 48 | 2.0 | 7.0 | 0.00 | 0.07 | 0.01 | 59 | 1014.0 |
| 20260503210827 | 76 | 76 | 3.0 | 8.0 | 0.00 | 0.07 | 0.01 | 58 | 1014.0 |
| 20260503205826 | 76 | 53 | 3.0 | 8.0 | 0.00 | 0.07 | 0.01 | 57 | 1014.0 |
| 20260503204825 | 76 | 53 | 3.0 | 9.0 | 0.00 | 0.07 | 0.01 | 57 | 1014.0 |
| 20260503203824 | 76 | 56 | 2.0 | 9.0 | 0.00 | 0.08 | 0.01 | 58 | 1014.0 |
| 20260503202823 | 75 | 45 | 2.0 | 9.0 | 0.00 | 0.10 | 0.01 | 58 | 1014.0 |
| 20260503201823 | 76 | 5 | 3.0 | 8.0 | 0.00 | 0.12 | 0.01 | 57 | 1014.3 |
| 20260503200821 | 76 | 49 | 2.0 | 9.0 | 0.00 | 0.12 | 0.01 | 58 | 1014.0 |
| 20260503195820 | 76 | 11 | 4.0 | 8.0 | 0.00 | 0.12 | 0.01 | 58 | 1014.3 |
| 20260503194820 | 77 | 4 | 3.0 | 7.0 | 0.00 | 0.13 | 0.01 | 58 | 1014.3 |
| 20260503193818 | 77 | 27 | 2.0 | 8.0 | 0.00 | 0.13 | 0.01 | 58 | 1014.6 |
| 20260503192817 | 77 | 41 | 3.0 | 9.0 | 0.00 | 0.13 | 0.01 | 58 | 1014.6 |
| 20260503191816 | 77 | 17 | 3.0 | 9.0 | 0.00 | 0.15 | 0.01 | 57 | 1015.0 |
| 20260503190815 | 78 | 86 | 2.0 | 7.0 | 0.00 | 0.19 | 0.01 | 57 | 1015.3 |
| 20260503185814 | 77 | 48 | 4.0 | 8.0 | 0.00 | 0.26 | 0.01 | 58 | 1015.0 |
| 20260503184813 | 76 | 359 | 2.0 | 10.0 | 0.00 | 0.26 | 0.01 | 60 | 1015.3 |
| 20260503183812 | 76 | 7 | 3.0 | 11.0 | 0.00 | 0.26 | 0.01 | 60 | 1015.3 |
| 20260503182812 | 77 | 33 | 3.0 | 7.0 | 0.00 | 0.26 | 0.01 | 58 | 1015.3 |
| 20260503181810 | 77 | 59 | 2.0 | 7.0 | 0.00 | 0.26 | 0.01 | 57 | 1015.3 |
| 20260503180809 | 77 | 27 | 3.0 | 9.0 | 0.00 | 0.26 | 0.01 | 59 | 1015.7 |
| 20260503175808 | 78 | 40 | 4.0 | 10.0 | 0.00 | 0.26 | 0.01 | 57 | 1015.7 |
| 20260503174808 | 76 | 22 | 3.0 | 10.0 | 0.00 | 0.26 | 0.01 | 59 | 1015.7 |
| 20260503173735 | 76 | 16 | 4.0 | 9.0 | 0.00 | 0.26 | 0.01 | 59 | 1015.7 |
| 20260503172734 | 75 | 38 | 3.0 | 11.0 | 0.00 | 0.26 | 0.01 | 63 | 1016.0 |
| 20260503171702 | 75 | 43 | 5.0 | 13.0 | 0.00 | 0.26 | 0.01 | 63 | 1016.0 |
| 20260503170701 | 75 | 14 | 5.0 | 12.0 | 0.00 | 0.26 | 0.01 | 65 | 1016.0 |
| 20260503150517 | 72 | 19 | 6.0 | 17.0 | 0.00 | 0.26 | 0.01 | 74 | 1016.0 |
| 20260503131333 | 67 | 32 | 2.0 | 10.0 | 0.00 | 0.26 | 0.01 | 89 | 1015.0 |
| 20260503130332 | 65 | 22 | 3.0 | 8.0 | 0.00 | 0.26 | 0.01 | 91 | 1015.3 |
| 20260503110148 | 61 | 45 | 1.0 | 4.0 | 0.00 | 0.26 | 0.01 | 96 | 1013.9 |
| 20260503100111 | 62 | 304 | 1.0 | 2.0 | 0.00 | 0.26 | 0.01 | 97 | 1013.6 |
| 20260503080958 | 62 | 33 | 1.0 | 3.0 | 0.00 | 0.26 | 0.01 | 97 | 1012.6 |
| 20260503072923 | 63 | 327 | 0.0 | 1.0 | 0.00 | 0.26 | 0.01 | 97 | 1012.6 |
| 20260503071922 | 63 | 319 | 0.0 | 2.0 | 0.00 | 0.26 | 0.01 | 97 | 1012.6 |
| 20260503070849 | 63 | 351 | 1.0 | 3.0 | 0.00 | 0.26 | 0.01 | 97 | 1012.6 |
| 20260503054708 | 64 | 315 | 0.0 | 1.0 | 0.00 | 0.25 | 0.00 | 97 | 1013.0 |
| 20260503053636 | 64 | 13 | 0.0 | 0.0 | 0.00 | 0.25 | 0.00 | 97 | 1013.0 |
| 20260503052635 | 64 | 315 | 0.0 | 0.0 | 0.00 | 0.25 | 0.00 | 97 | 1013.0 |
| 20260503051603 | 64 | 315 | 0.0 | 1.0 | 0.00 | 0.25 | 0.00 | 97 | 1013.0 |
| 20260503050602 | 64 | 315 | 0.0 | 2.0 | 0.00 | 0.25 | 0.00 | 97 | 1013.0 |
| 20260503045601 | 64 | 316 | 0.0 | 2.0 | 0.00 | 0.25 | 0.00 | 97 | 1012.6 |
| 20260503044600 | 64 | 27 | 1.0 | 3.0 | 0.01 | 0.25 | 0.00 | 97 | 1012.6 |
| 20260503043559 | 64 | 294 | 0.0 | 4.0 | 0.02 | 0.25 | 0.00 | 97 | 1012.3 |
| 20260503042527 | 64 | 358 | 0.0 | 9.0 | 0.02 | 0.25 | 0.00 | 97 | 1012.0 |
| 20260503041526 | 64 | 5 | 1.0 | 10.0 | 0.04 | 0.25 | 0.00 | 97 | 1012.0 |
| 20260503040525 | 65 | 17 | 3.0 | 10.0 | 0.04 | 0.25 | 0.00 | 97 | 1012.0 |
| 20260503035453 | 65 | 17 | 3.0 | 7.0 | 0.05 | 0.25 | 0.25 | 97 | 1012.0 |
| 20260503034452 | 66 | 356 | 2.0 | 4.0 | 0.04 | 0.24 | 0.24 | 97 | 1011.6 |
| 20260503033451 | 66 | 339 | 2.0 | 6.0 | 0.03 | 0.23 | 0.23 | 97 | 1011.6 |
| 20260503032450 | 67 | 358 | 2.0 | 5.0 | 0.03 | 0.23 | 0.23 | 97 | 1011.3 |
| 20260503031449 | 67 | 313 | 1.0 | 2.0 | 0.02 | 0.21 | 0.21 | 97 | 1011.3 |
| 20260503030448 | 67 | 32 | 0.0 | 1.0 | 0.02 | 0.21 | 0.21 | 97 | 1010.9 |
| 20260503025446 | 67 | 34 | 1.0 | 3.0 | 0.01 | 0.20 | 0.20 | 97 | 1010.9 |
| 20260503024446 | 67 | 356 | 0.0 | 5.0 | 0.01 | 0.20 | 0.20 | 96 | 1010.9 |
| 20260503023445 | 68 | 40 | 1.0 | 8.0 | 0.01 | 0.20 | 0.20 | 96 | 1010.6 |
| 20260503022444 | 68 | 8 | 2.0 | 9.0 | 0.01 | 0.20 | 0.20 | 95 | 1010.3 |
| 20260503021443 | 69 | 13 | 3.0 | 7.0 | 0.00 | 0.19 | 0.19 | 96 | 1009.9 |
| 20260503020442 | 69 | 311 | 0.0 | 1.0 | 0.00 | 0.19 | 0.19 | 96 | 1009.6 |
| 20260503015441 | 69 | 356 | 0.0 | 0.0 | 0.00 | 0.19 | 0.19 | 96 | 1009.6 |
| 20260503014409 | 69 | 359 | 0.0 | 0.0 | 0.00 | 0.19 | 0.19 | 96 | 1009.2 |
| 20260503013407 | 69 | 359 | 0.0 | 0.0 | 0.00 | 0.19 | 0.19 | 96 | 1009.2 |
| 20260503012406 | 69 | 356 | 0.0 | 1.0 | 0.00 | 0.19 | 0.19 | 96 | 1009.2 |